| time (UTC) | temp C | wind direction | speed KPH | gust KPH | rain 1hr cm | rain 24hr cm | rain mn cm | humidity % | barometer mb |
| 20260504050616 | 27 | 219 | 3.2 | 6.4 | 0.00 | 0.00 | 0.00 | 83 | 1011.5 |
| 20260504050003 | 27 | 210 | 1.6 | 6.4 | 0.00 | 0.00 | 0.00 | 83 | 1011.5 |
| 20260504045525 | 27 | 238 | 3.2 | 6.4 | 0.00 | 0.00 | 0.00 | 83 | 1011.5 |
| 20260504045057 | 27 | 227 | 1.6 | 6.4 | 0.00 | 0.00 | 0.00 | 83 | 1011.5 |
| 20260504044613 | 27 | 237 | 3.2 | 8.0 | 0.00 | 0.00 | 0.00 | 84 | 1011.5 |
| 20260504044013 | 27 | 221 | 3.2 | 6.4 | 0.00 | 0.00 | 0.00 | 84 | 1011.5 |
| 20260504043535 | 27 | 268 | 1.6 | 6.4 | 0.00 | 0.00 | 0.00 | 83 | 1011.6 |
| 20260504043105 | 27 | 232 | 1.6 | 6.4 | 0.00 | 0.00 | 0.00 | 83 | 1011.5 |
| 20260504042626 | 27 | 227 | 3.2 | 6.4 | 0.00 | 0.00 | 0.00 | 83 | 1011.5 |
| 20260504042028 | 27 | 221 | 1.6 | 6.4 | 0.00 | 0.00 | 0.00 | 83 | 1011.4 |
| 20260504041541 | 27 | 213 | 1.6 | 4.8 | 0.00 | 0.00 | 0.00 | 83 | 1011.3 |
| 20260504041057 | 27 | 210 | 1.6 | 6.4 | 0.00 | 0.00 | 0.00 | 83 | 1011.3 |
| 20260504040613 | 27 | 216 | 1.6 | 6.4 | 0.00 | 0.00 | 0.00 | 83 | 1011.2 |
| 20260504040015 | 27 | 249 | 0.0 | 4.8 | 0.00 | 0.00 | 0.00 | 83 | 1011.3 |
| 20260504035535 | 27 | 250 | 1.6 | 6.4 | 0.00 | 0.00 | 0.00 | 83 | 1011.2 |
| 20260504035102 | 27 | 258 | 1.6 | 6.4 | 0.00 | 0.00 | 0.00 | 83 | 1011.2 |
| 20260504034621 | 27 | 213 | 1.6 | 6.4 | 0.00 | 0.00 | 0.00 | 83 | 1011.0 |
| 20260504034015 | 27 | 250 | 3.2 | 9.7 | 0.00 | 0.00 | 0.00 | 83 | 1010.9 |
| 20260504033532 | 27 | 265 | 1.6 | 9.7 | 0.00 | 0.00 | 0.00 | 83 | 1010.8 |
| 20260504033053 | 27 | 240 | 1.6 | 6.4 | 0.00 | 0.00 | 0.00 | 83 | 1010.8 |
| 20260504032617 | 27 | 252 | 0.0 | 6.4 | 0.00 | 0.00 | 0.00 | 83 | 1010.7 |
| 20260504032012 | 27 | 241 | 0.0 | 6.4 | 0.00 | 0.00 | 0.00 | 83 | 1010.6 |
| 20260504031529 | 27 | 238 | 3.2 | 6.4 | 0.00 | 0.00 | 0.00 | 83 | 1010.6 |
| 20260504031056 | 27 | 252 | 1.6 | 6.4 | 0.00 | 0.00 | 0.00 | 83 | 1010.5 |
| 20260504030615 | 27 | 255 | 3.2 | 6.4 | 0.00 | 0.00 | 0.00 | 83 | 1010.5 |
| 20260504030016 | 27 | 192 | 0.0 | 8.0 | 0.00 | 0.00 | 0.00 | 83 | 1010.4 |
| 20260504025537 | 27 | 205 | 1.6 | 9.7 | 0.00 | 0.00 | 0.00 | 83 | 1010.4 |
| 20260504025103 | 27 | 182 | 4.8 | 9.7 | 0.00 | 0.00 | 0.00 | 83 | 1010.3 |
| 20260504024622 | 27 | 188 | 3.2 | 8.0 | 0.00 | 0.00 | 0.00 | 83 | 1010.3 |
| 20260504024022 | 27 | 210 | 1.6 | 8.0 | 0.00 | 0.00 | 0.00 | 83 | 1010.2 |
| 20260504023535 | 27 | 205 | 0.0 | 11.3 | 0.00 | 0.00 | 0.00 | 83 | 1010.2 |
| 20260504023105 | 27 | 187 | 4.8 | 11.3 | 0.00 | 0.00 | 0.00 | 83 | 1010.1 |
| 20260504022626 | 27 | 235 | 3.2 | 11.3 | 0.00 | 0.00 | 0.00 | 83 | 1010.0 |
| 20260504022037 | 27 | 245 | 4.8 | 11.3 | 0.00 | 0.00 | 0.00 | 83 | 1010.0 |
| 20260504021559 | 27 | 230 | 1.6 | 11.3 | 0.00 | 0.00 | 0.00 | 83 | 1009.9 |
| 20260504021051 | 27 | 227 | 4.8 | 11.3 | 0.00 | 0.00 | 0.00 | 83 | 1009.8 |
| 20260504020606 | 27 | 235 | 3.2 | 9.7 | 0.00 | 0.00 | 0.00 | 82 | 1009.7 |
| 20260504020016 | 27 | 227 | 3.2 | 8.0 | 0.00 | 0.00 | 0.00 | 82 | 1009.7 |
| 20260504015529 | 27 | 207 | 3.2 | 12.9 | 0.00 | 0.00 | 0.00 | 82 | 1009.6 |
| 20260504015049 | 27 | 186 | 6.4 | 16.1 | 0.00 | 0.00 | 0.00 | 82 | 1009.6 |
| 20260504014619 | 27 | 195 | 4.8 | 16.1 | 0.00 | 0.00 | 0.00 | 82 | 1009.5 |
| 20260504014011 | 27 | 185 | 3.2 | 11.3 | 0.00 | 0.00 | 0.00 | 82 | 1009.4 |
| 20260504013530 | 28 | 250 | 4.8 | 12.9 | 0.00 | 0.00 | 0.00 | 82 | 1009.4 |
| 20260504013055 | 27 | 242 | 4.8 | 12.9 | 0.00 | 0.00 | 0.00 | 81 | 1009.4 |
| 20260504012615 | 28 | 244 | 6.4 | 12.9 | 0.00 | 0.00 | 0.00 | 81 | 1009.5 |
| 20260504012131 | 28 | 206 | 4.8 | 9.7 | 0.00 | 0.00 | 0.00 | 82 | 1009.5 |
| 20260504011515 | 28 | 207 | 4.8 | 11.3 | 0.00 | 0.00 | 0.00 | 82 | 1009.5 |
| 20260504011105 | 28 | 217 | 6.4 | 11.3 | 0.00 | 0.00 | 0.00 | 82 | 1009.6 |
| 20260504010620 | 28 | 248 | 4.8 | 11.3 | 0.00 | 0.00 | 0.00 | 82 | 1009.5 |
| 20260504010038 | 28 | 185 | 4.8 | 12.9 | 0.00 | 0.00 | 0.00 | 82 | 1009.6 |
| 20260504005616 | 28 | 236 | 4.8 | 12.9 | 0.00 | 0.00 | 0.00 | 82 | 1009.6 |
| 20260504005011 | 28 | 251 | 6.4 | 16.1 | 0.00 | 0.00 | 0.00 | 82 | 1009.6 |
| 20260504004531 | 28 | 188 | 11.3 | 16.1 | 0.00 | 0.00 | 0.00 | 82 | 1009.6 |
| 20260504004101 | 28 | 213 | 3.2 | 11.3 | 0.00 | 0.00 | 0.00 | 82 | 1009.5 |
| 20260504003622 | 28 | 188 | 6.4 | 11.3 | 0.00 | 0.00 | 0.00 | 82 | 1009.5 |
| 20260504003009 | 28 | 165 | 6.4 | 11.3 | 0.00 | 0.00 | 0.00 | 82 | 1009.5 |
| 20260504002525 | 28 | 188 | 6.4 | 11.3 | 0.00 | 0.00 | 0.00 | 82 | 1009.6 |
| 20260504002057 | 28 | 173 | 8.0 | 11.3 | 0.00 | 0.00 | 0.00 | 81 | 1009.5 |
| 20260504001629 | 28 | 180 | 4.8 | 11.3 | 0.00 | 0.00 | 0.00 | 81 | 1009.5 |
| 20260504001131 | 28 | 200 | 6.4 | 9.7 | 0.00 | 0.00 | 0.00 | 81 | 1009.4 |
| 20260504000520 | 28 | 252 | 4.8 | 11.3 | 0.00 | 0.00 | 0.00 | 81 | 1009.5 |
| 20260504000049 | 28 | 248 | 3.2 | 11.3 | 0.00 | 0.00 | 0.00 | 81 | 1009.4 |
| 20260503235536 | 28 | 178 | 4.8 | 11.3 | 0.00 | 0.00 | 0.00 | 82 | 1009.4 |
| 20260503235128 | 28 | 221 | 8.0 | 11.3 | 0.00 | 0.00 | 0.00 | 82 | 1009.4 |
| 20260503234527 | 28 | 216 | 6.4 | 16.1 | 0.00 | 0.00 | 0.00 | 81 | 1009.3 |
| 20260503234103 | 28 | 211 | 4.8 | 16.1 | 0.00 | 0.00 | 0.00 | 81 | 1009.3 |
| 20260503233621 | 28 | 190 | 4.8 | 14.5 | 0.00 | 0.00 | 0.00 | 81 | 1009.4 |
| 20260503233006 | 28 | 196 | 6.4 | 16.1 | 0.00 | 0.00 | 0.00 | 80 | 1009.3 |
| 20260503232524 | 28 | 231 | 9.7 | 16.1 | 0.00 | 0.00 | 0.00 | 80 | 1009.3 |
| 20260503232058 | 28 | 219 | 6.4 | 16.1 | 0.00 | 0.00 | 0.00 | 80 | 1009.2 |
| 20260503231619 | 28 | 197 | 8.0 | 16.1 | 0.00 | 0.00 | 0.00 | 78 | 1009.2 |
| 20260503231020 | 29 | 209 | 1.6 | 9.7 | 0.00 | 0.00 | 0.00 | 77 | 1009.1 |
| 20260503230536 | 29 | 215 | 4.8 | 11.3 | 0.00 | 0.00 | 0.00 | 77 | 1009.1 |
| 20260503230124 | 29 | 223 | 6.4 | 11.3 | 0.00 | 0.00 | 0.00 | 77 | 1009.1 |
| 20260503225520 | 29 | 267 | 4.8 | 14.5 | 0.00 | 0.00 | 0.00 | 76 | 1009.1 |
| 20260503225100 | 29 | 215 | 4.8 | 14.5 | 0.00 | 0.00 | 0.00 | 76 | 1009.0 |
| 20260503224621 | 29 | 257 | 4.8 | 14.5 | 0.00 | 0.00 | 0.00 | 75 | 1009.0 |
| 20260503224014 | 30 | 201 | 8.0 | 16.1 | 0.00 | 0.00 | 0.00 | 74 | 1008.9 |
| 20260503223535 | 30 | 225 | 6.4 | 17.7 | 0.00 | 0.00 | 0.00 | 73 | 1008.9 |
| 20260503223053 | 30 | 259 | 8.0 | 17.7 | 0.00 | 0.00 | 0.00 | 72 | 1008.8 |
| 20260503222612 | 30 | 225 | 6.4 | 16.1 | 0.00 | 0.00 | 0.00 | 72 | 1008.8 |
| 20260503222014 | 30 | 265 | 6.4 | 16.1 | 0.00 | 0.00 | 0.00 | 73 | 1008.7 |
| 20260503221535 | 31 | 269 | 6.4 | 14.5 | 0.00 | 0.00 | 0.00 | 72 | 1008.7 |
| 20260503221050 | 31 | 217 | 6.4 | 14.5 | 0.00 | 0.00 | 0.00 | 72 | 1008.7 |
| 20260503220605 | 31 | 171 | 4.8 | 16.1 | 0.00 | 0.00 | 0.00 | 72 | 1008.8 |
| 20260503220024 | 31 | 215 | 8.0 | 16.1 | 0.00 | 0.00 | 0.00 | 72 | 1008.7 |
| 20260503215528 | 31 | 242 | 4.8 | 12.9 | 0.00 | 0.00 | 0.00 | 72 | 1008.7 |
| 20260503215056 | 31 | 244 | 4.8 | 11.3 | 0.00 | 0.00 | 0.00 | 72 | 1008.7 |
| 20260503214618 | 30 | 158 | 6.4 | 16.1 | 0.00 | 0.00 | 0.00 | 72 | 1008.8 |
| 20260503214129 | 31 | 239 | 8.0 | 16.1 | 0.00 | 0.00 | 0.00 | 72 | 1008.8 |
| 20260503213514 | 31 | 177 | 8.0 | 16.1 | 0.00 | 0.00 | 0.00 | 71 | 1008.8 |
| 20260503213106 | 31 | 186 | 6.4 | 14.5 | 0.00 | 0.00 | 0.00 | 71 | 1008.8 |
| 20260503212616 | 31 | 235 | 8.0 | 14.5 | 0.00 | 0.00 | 0.00 | 72 | 1008.9 |
| 20260503212005 | 31 | 204 | 8.0 | 16.1 | 0.00 | 0.00 | 0.00 | 72 | 1009.0 |
| 20260503211525 | 31 | 173 | 9.7 | 17.7 | 0.00 | 0.00 | 0.00 | 72 | 1009.1 |
| 20260503211050 | 31 | 235 | 6.4 | 16.1 | 0.00 | 0.00 | 0.00 | 72 | 1009.2 |
| 20260503210612 | 31 | 234 | 4.8 | 20.9 | 0.00 | 0.00 | 0.00 | 72 | 1009.3 |
| 20260503210009 | 31 | 249 | 8.0 | 17.7 | 0.00 | 0.00 | 0.00 | 72 | 1009.3 |
| 20260503205534 | 31 | 219 | 8.0 | 19.3 | 0.00 | 0.00 | 0.00 | 72 | 1009.3 |
| 20260503205053 | 31 | 202 | 6.4 | 16.1 | 0.00 | 0.00 | 0.00 | 71 | 1009.3 |
| 20260503204612 | 31 | 212 | 9.7 | 16.1 | 0.00 | 0.00 | 0.00 | 72 | 1009.4 |
| 20260503204016 | 31 | 215 | 3.2 | 19.3 | 0.00 | 0.00 | 0.00 | 72 | 1009.5 |
| 20260503203534 | 31 | 187 | 11.3 | 20.9 | 0.00 | 0.00 | 0.00 | 71 | 1009.6 |
| 20260503203053 | 31 | 167 | 11.3 | 19.3 | 0.00 | 0.00 | 0.00 | 71 | 1009.7 |
| 20260503202609 | 31 | 224 | 9.7 | 17.7 | 0.00 | 0.00 | 0.00 | 71 | 1009.8 |
| 20260503202019 | 31 | 242 | 8.0 | 14.5 | 0.00 | 0.00 | 0.00 | 71 | 1009.9 |
| 20260503201533 | 31 | 213 | 9.7 | 14.5 | 0.00 | 0.00 | 0.00 | 72 | 1009.9 |
| 20260503201058 | 30 | 221 | 6.4 | 17.7 | 0.00 | 0.00 | 0.00 | 72 | 1010.0 |
| 20260503200620 | 30 | 185 | 8.0 | 17.7 | 0.00 | 0.00 | 0.00 | 72 | 1010.1 |
| 20260503200043 | 30 | 223 | 8.0 | 17.7 | 0.00 | 0.00 | 0.00 | 72 | 1010.2 |
| 20260503195522 | 30 | 250 | 8.0 | 20.9 | 0.00 | 0.00 | 0.00 | 71 | 1010.1 |
| 20260503195048 | 30 | 220 | 8.0 | 20.9 | 0.00 | 0.00 | 0.00 | 71 | 1010.2 |
| 20260503194607 | 31 | 238 | 11.3 | 19.3 | 0.00 | 0.00 | 0.00 | 70 | 1010.2 |
| 20260503194007 | 31 | 267 | 6.4 | 19.3 | 0.00 | 0.00 | 0.00 | 70 | 1010.2 |
| 20260503193527 | 31 | 232 | 6.4 | 19.3 | 0.00 | 0.00 | 0.00 | 69 | 1010.2 |
| 20260503193107 | 31 | 156 | 6.4 | 19.3 | 0.00 | 0.00 | 0.00 | 69 | 1010.3 |
| 20260503192614 | 31 | 259 | 9.7 | 16.1 | 0.00 | 0.00 | 0.00 | 69 | 1010.3 |
| 20260503192005 | 31 | 250 | 8.0 | 16.1 | 0.00 | 0.00 | 0.00 | 68 | 1010.3 |
| 20260503191521 | 31 | 174 | 8.0 | 16.1 | 0.00 | 0.00 | 0.00 | 67 | 1010.3 |
| 20260503191054 | 31 | 275 | 9.7 | 19.3 | 0.00 | 0.00 | 0.00 | 67 | 1010.2 |
| 20260503190612 | 31 | 180 | 9.7 | 16.1 | 0.00 | 0.00 | 0.00 | 66 | 1010.3 |
| 20260503190014 | 32 | 175 | 6.4 | 17.7 | 0.00 | 0.00 | 0.00 | 66 | 1010.4 |
| 20260503185528 | 31 | 223 | 6.4 | 17.7 | 0.00 | 0.00 | 0.00 | 67 | 1010.5 |
| 20260503185100 | 32 | 202 | 6.4 | 14.5 | 0.00 | 0.00 | 0.00 | 66 | 1010.5 |
| 20260503184617 | 31 | 194 | 4.8 | 14.5 | 0.00 | 0.00 | 0.00 | 67 | 1010.5 |
| 20260503184016 | 31 | 200 | 4.8 | 14.5 | 0.00 | 0.00 | 0.00 | 67 | 1010.6 |
| 20260503183535 | 31 | 205 | 8.0 | 16.1 | 0.00 | 0.00 | 0.00 | 66 | 1010.5 |
| 20260503183112 | 31 | 205 | 6.4 | 14.5 | 0.00 | 0.00 | 0.00 | 67 | 1010.6 |
| 20260503182516 | 31 | 244 | 6.4 | 12.9 | 0.00 | 0.00 | 0.00 | 66 | 1010.8 |
| 20260503182059 | 31 | 196 | 6.4 | 12.9 | 0.00 | 0.00 | 0.00 | 67 | 1010.8 |
| 20260503181614 | 31 | 226 | 6.4 | 14.5 | 0.00 | 0.00 | 0.00 | 69 | 1010.9 |
| 20260503181007 | 31 | 229 | 6.4 | 14.5 | 0.00 | 0.00 | 0.00 | 67 | 1011.0 |
| 20260503180526 | 31 | 190 | 6.4 | 14.5 | 0.00 | 0.00 | 0.00 | 67 | 1011.0 |
| 20260503180053 | 31 | 177 | 6.4 | 14.5 | 0.00 | 0.00 | 0.00 | 67 | 1011.1 |
| 20260503175604 | 31 | 229 | 4.8 | 12.9 | 0.00 | 0.00 | 0.00 | 68 | 1011.1 |
| 20260503175008 | 30 | 244 | 6.4 | 12.9 | 0.00 | 0.00 | 0.00 | 68 | 1011.1 |
| 20260503174528 | 30 | 192 | 6.4 | 12.9 | 0.00 | 0.00 | 0.00 | 69 | 1011.1 |
| 20260503174050 | 30 | 287 | 4.8 | 12.9 | 0.00 | 0.00 | 0.00 | 68 | 1011.1 |
| 20260503173606 | 30 | 227 | 8.0 | 14.5 | 0.00 | 0.00 | 0.00 | 68 | 1011.2 |
| 20260503173021 | 30 | 208 | 6.4 | 14.5 | 0.00 | 0.00 | 0.00 | 68 | 1011.2 |
| 20260503172540 | 30 | 253 | 8.0 | 11.3 | 0.00 | 0.00 | 0.00 | 67 | 1011.2 |
| 20260503172104 | 30 | 263 | 4.8 | 11.3 | 0.00 | 0.00 | 0.00 | 68 | 1011.3 |
| 20260503171622 | 30 | 240 | 4.8 | 11.3 | 0.00 | 0.00 | 0.00 | 68 | 1011.3 |
| 20260503171010 | 30 | 222 | 6.4 | 11.3 | 0.00 | 0.00 | 0.00 | 68 | 1011.3 |
| 20260503170528 | 30 | 198 | 4.8 | 9.7 | 0.00 | 0.00 | 0.00 | 68 | 1011.3 |
| 20260503150625 | 28 | 321 | 1.6 | 8.0 | 0.00 | 0.00 | 0.00 | 65 | 1011.3 |
| 20260503131103 | 25 | 5 | 3.2 | 4.8 | 0.00 | 0.00 | 0.00 | 81 | 1010.2 |
| 20260503130623 | 25 | 98 | 0.0 | 1.6 | 0.00 | 0.00 | 0.00 | 81 | 1010.0 |
| 20260503110526 | 25 | 98 | 0.0 | 4.8 | 0.00 | 0.00 | 0.00 | 80 | 1008.6 |
| 20260503081536 | 27 | 121 | 0.0 | 3.2 | 0.00 | 0.00 | 0.00 | 77 | 1008.6 |
| 20260503081105 | 27 | 121 | 0.0 | 3.2 | 0.00 | 0.00 | 0.00 | 77 | 1008.6 |
| 20260503080622 | 27 | 121 | 0.0 | 3.2 | 0.00 | 0.00 | 0.00 | 77 | 1008.6 |
| 20260503072623 | 27 | 124 | 0.0 | 4.8 | 0.00 | 0.00 | 0.00 | 78 | 1009.0 |
| 20260503072016 | 27 | 124 | 1.6 | 4.8 | 0.00 | 0.00 | 0.00 | 78 | 1009.1 |
| 20260503071534 | 27 | 126 | 1.6 | 4.8 | 0.00 | 0.00 | 0.00 | 78 | 1009.0 |
| 20260503071113 | 27 | 116 | 0.0 | 4.8 | 0.00 | 0.00 | 0.00 | 78 | 1009.1 |
| 20260503070623 | 27 | 109 | 1.6 | 4.8 | 0.00 | 0.00 | 0.00 | 78 | 1009.1 |
| 20260503055055 | 27 | 186 | 1.6 | 8.0 | 0.00 | 0.00 | 0.00 | 80 | 1009.4 |
| 20260503054614 | 27 | 199 | 3.2 | 8.0 | 0.00 | 0.00 | 0.00 | 80 | 1009.5 |
| 20260503054022 | 27 | 177 | 4.8 | 8.0 | 0.00 | 0.00 | 0.00 | 81 | 1009.5 |
| 20260503053541 | 27 | 167 | 3.2 | 8.0 | 0.00 | 0.00 | 0.00 | 81 | 1009.5 |
| 20260503053127 | 27 | 178 | 3.2 | 6.4 | 0.00 | 0.00 | 0.00 | 81 | 1009.5 |
| 20260503052515 | 27 | 185 | 3.2 | 6.4 | 0.00 | 0.00 | 0.00 | 81 | 1009.5 |
| 20260503052105 | 27 | 155 | 3.2 | 8.0 | 0.00 | 0.00 | 0.00 | 81 | 1009.5 |
| 20260503051624 | 27 | 181 | 4.8 | 8.0 | 0.00 | 0.00 | 0.00 | 81 | 1009.4 |
| 20260503051134 | 27 | 220 | 3.2 | 8.0 | 0.00 | 0.00 | 0.00 | 82 | 1009.4 |